User: anonymous   Login
Location: Unspecified
(0.0000°N, 0.0000°E)
Time: 05:29:05
(UTC+00:00)
Language:

PRISMA (TANGO) - Orbit

View from above orbital plane
View from above orbital plane
View from above satellite
View from above satellite

Ground track
Ground track

The orbit data is extracted from the following two-line orbital elements,

1 36827U 10028F   18344.10607942  .00000019  00000-0  18988-4 0  9994
2 36827  98.5077 154.6738 0042149 212.4292 147.4306 14.42370161438357
Epoch (UTC): 10 December 2018 02:32:45
Eccentricity: 0.0042149
inclination: 98.5077°
perigee height: 720 km
apogee height: 781 km
right ascension of ascending node: 154.6738°
argument of perigee: 212.4292°
revolutions per day: 14.42370161
mean anomaly at epoch: 147.4306°
orbit number at epoch: 43835

The dashed part of the orbit path shows where the satellite is in the earth's shadow,  

DLR